Retour au catalogue

STARLINK-38276

ActifCommunicationsSSO
NORAD 100390·PAYLOAD·🇺🇸 United States

Lancé Aug 19, 2026 depuis Vandenberg Space Force Base

Loading…

Prochains Passages (prochaines 24 heures)

TLE

FraisSource: Space-Track

Époque: Sep 13, 2026, 14:09 UTC

1 A0390U 26190V   26256.58984777 -.00360649  00000-0 -27408-2 0  9999
2 A0390  97.2843 110.5429 0001167  91.8771 268.2627 15.73243400  5284

Suivez STARLINK-38276 en temps réel avec AllMySat

Download on the App Store